CTN413 EDDF-LDSP

Flight info

Callsign CTN413
Flight time 1h 22m
Altitude 37000
Route CINDY8S CINDY Z74 LAMPU DCT NOMBO Y161 MAH DCT BERAS DCT LIKDA DCT BAKOR DCT MOBDO DCT RASUG DCT LOS DCT MINTU DCT SAL
Aircraft A319/M-SDE3FGHIRWY/LB1

Departure

Time 2026-05-05 02:50
Airport Frankfurt Main Airport (EDDF)

Arrival

Time 2026-05-05 04:13
Airport Split Saint Jerome Airport (LDSP)
Time Latitude Longitude Altitude Speed Heading
2026-05-05 02:00 50.04378 8.56971 360 ft 0 kts 160°
2026-05-05 02:37 50.04372 8.56975 382 ft 2 kts 160°
2026-05-05 02:38 50.04349 8.56988 359 ft 4 kts 160°
2026-05-05 02:38 50.04316 8.57007 361 ft 6 kts 161°
2026-05-05 02:38 50.04292 8.56966 361 ft 6 kts 248°
2026-05-05 02:38 50.04277 8.56904 362 ft 6 kts 249°
2026-05-05 02:39 50.04262 8.56841 363 ft 6 kts 250°
2026-05-05 02:39 50.04244 8.56766 363 ft 9 kts 250°
2026-05-05 02:39 50.04227 8.56662 361 ft 11 kts 282°
2026-05-05 02:39 50.04291 8.56607 358 ft 11 kts 340°
2026-05-05 02:40 50.04364 8.56563 358 ft 11 kts 326°
2026-05-05 02:40 50.04363 8.56453 359 ft 12 kts 250°
2026-05-05 02:40 50.04333 8.56330 360 ft 13 kts 250°
2026-05-05 02:40 50.04301 8.56196 355 ft 14 kts 249°
2026-05-05 02:41 50.04266 8.56052 360 ft 15 kts 250°
2026-05-05 02:41 50.04230 8.55899 354 ft 16 kts 250°
2026-05-05 02:41 50.04192 8.55739 356 ft 16 kts 250°
2026-05-05 02:41 50.04152 8.55573 355 ft 17 kts 250°
2026-05-05 02:42 50.04112 8.55404 354 ft 16 kts 250°
2026-05-05 02:42 50.04075 8.55249 357 ft 12 kts 249°
2026-05-05 02:42 50.04046 8.55129 357 ft 12 kts 249°
2026-05-05 02:42 50.04015 8.55002 356 ft 13 kts 249°
2026-05-05 02:43 50.03983 8.54866 354 ft 15 kts 250°
2026-05-05 02:43 50.03945 8.54708 353 ft 16 kts 249°
2026-05-05 02:43 50.03906 8.54548 352 ft 13 kts 249°
2026-05-05 02:43 50.03872 8.54406 350 ft 15 kts 249°
2026-05-05 02:44 50.03815 8.54270 345 ft 16 kts 236°
2026-05-05 02:44 50.03773 8.54109 351 ft 17 kts 250°
2026-05-05 02:44 50.03734 8.53945 350 ft 14 kts 249°
2026-05-05 02:44 50.03698 8.53795 345 ft 15 kts 249°
2026-05-05 02:45 50.03659 8.53635 347 ft 16 kts 249°
2026-05-05 02:45 50.03618 8.53474 338 ft 15 kts 249°
2026-05-05 02:45 50.03581 8.53319 340 ft 16 kts 249°
2026-05-05 02:45 50.03541 8.53154 337 ft 14 kts 249°
2026-05-05 02:46 50.03507 8.53010 338 ft 15 kts 249°
2026-05-05 02:46 50.03470 8.52865 334 ft 11 kts 246°
2026-05-05 02:46 50.03438 8.52749 333 ft 6 kts 249°
2026-05-05 02:46 50.03421 8.52679 336 ft 8 kts 249°
2026-05-05 02:47 50.03400 8.52600 334 ft 8 kts 234°
2026-05-05 02:47 50.03374 8.52592 335 ft 0 kts 179°
2026-05-05 02:49 50.03371 8.52592 335 ft 1 kts 179°
2026-05-05 02:50 50.03335 8.52592 336 ft 25 kts 179°
2026-05-05 02:50 50.02873 8.52598 336 ft 104 kts 179°
2026-05-05 02:50 50.01933 8.52608 354 ft 161 kts 179°
2026-05-05 02:50 50.00841 8.52621 1053 ft 151 kts 179°
2026-05-05 02:51 49.99821 8.52627 1794 ft 146 kts 179°
2026-05-05 02:51 49.98743 8.52630 2179 ft 166 kts 180°
2026-05-05 02:51 49.97509 8.52864 2518 ft 190 kts 161°
2026-05-05 02:51 49.96343 8.53982 2831 ft 214 kts 133°
2026-05-05 02:52 49.95498 8.56013 3379 ft 230 kts 121°
2026-05-05 02:52 49.94682 8.58201 4339 ft 232 kts 121°
2026-05-05 02:52 49.94120 8.60540 5202 ft 241 kts 105°
2026-05-05 02:52 49.93947 8.63277 5671 ft 267 kts 96°
2026-05-05 02:53 49.93801 8.66232 6450 ft 276 kts 103°
2026-05-05 02:53 49.93193 8.69006 7271 ft 277 kts 122°
2026-05-05 02:53 49.92015 8.71378 8153 ft 277 kts 141°
2026-05-05 02:53 49.90455 8.73183 9066 ft 280 kts 148°
2026-05-05 02:54 49.88909 8.75052 9941 ft 287 kts 138°
2026-05-05 02:54 49.87649 8.77574 10638 ft 302 kts 124°
2026-05-05 02:54 49.86570 8.80531 10937 ft 327 kts 122°
2026-05-05 02:54 49.85425 8.83720 11203 ft 350 kts 121°
2026-05-05 02:55 49.84220 8.87087 11772 ft 360 kts 121°
2026-05-05 02:55 49.83035 8.90399 12479 ft 365 kts 121°
2026-05-05 02:55 49.81771 8.93910 13236 ft 369 kts 121°
2026-05-05 02:55 49.80503 8.97405 13938 ft 374 kts 121°
2026-05-05 02:56 49.79216 9.00931 14612 ft 378 kts 122°
2026-05-05 02:56 49.77914 9.04488 15293 ft 381 kts 122°
2026-05-05 02:56 49.76604 9.08084 15973 ft 384 kts 122°
2026-05-05 02:56 49.75309 9.11704 16669 ft 387 kts 122°
2026-05-05 02:57 49.73853 9.15189 17297 ft 387 kts 134°
2026-05-05 02:57 49.71963 9.18179 17956 ft 388 kts 139°
2026-05-05 02:57 49.70039 9.21126 18557 ft 391 kts 139°
2026-05-05 02:57 49.68085 9.24103 19100 ft 395 kts 139°
2026-05-05 02:58 49.66112 9.27100 19652 ft 399 kts 139°
2026-05-05 02:58 49.64118 9.30122 20192 ft 404 kts 139°
2026-05-05 02:58 49.62135 9.33130 20718 ft 408 kts 139°
2026-05-05 02:58 49.60103 9.36218 21221 ft 412 kts 139°
2026-05-05 02:59 49.58086 9.39278 21719 ft 416 kts 140°
2026-05-05 02:59 49.56005 9.42420 22212 ft 420 kts 140°
2026-05-05 02:59 49.53903 9.45584 22694 ft 423 kts 140°
2026-05-05 02:59 49.52174 9.48188 23102 ft 426 kts 140°
2026-05-05 03:00 49.50031 9.51420 23595 ft 429 kts 140°
2026-05-05 03:00 49.47891 9.54655 24012 ft 432 kts 140°
2026-05-05 03:00 49.45743 9.57897 24429 ft 434 kts 140°
2026-05-05 03:00 49.43579 9.61153 24866 ft 436 kts 140°
2026-05-05 03:01 49.41412 9.64406 25290 ft 438 kts 140°
2026-05-05 03:01 49.39222 9.67691 25711 ft 440 kts 140°
2026-05-05 03:01 49.37018 9.70985 26121 ft 442 kts 140°
2026-05-05 03:01 49.34810 9.74277 26528 ft 444 kts 140°
2026-05-05 03:02 49.32596 9.77571 26908 ft 446 kts 140°
2026-05-05 03:02 49.30395 9.80851 27332 ft 446 kts 140°
2026-05-05 03:02 49.28164 9.84178 27675 ft 448 kts 140°
2026-05-05 03:02 49.25926 9.87513 28035 ft 451 kts 140°
2026-05-05 03:03 49.23668 9.90868 28398 ft 453 kts 140°
2026-05-05 03:03 49.21400 9.94228 28737 ft 455 kts 141°
2026-05-05 03:03 49.19126 9.97593 29091 ft 456 kts 141°
2026-05-05 03:03 49.16829 10.00984 29430 ft 458 kts 141°
2026-05-05 03:04 49.14531 10.04374 29773 ft 460 kts 141°
2026-05-05 03:04 49.12227 10.07769 30186 ft 459 kts 141°
2026-05-05 03:04 49.09934 10.11147 30610 ft 458 kts 141°
2026-05-05 03:04 49.07660 10.14493 31007 ft 457 kts 140°
2026-05-05 03:05 49.05348 10.17892 31420 ft 456 kts 140°
2026-05-05 03:05 49.03067 10.21238 31810 ft 455 kts 140°
2026-05-05 03:05 49.00782 10.24583 32212 ft 455 kts 140°
2026-05-05 03:05 48.98505 10.27912 32636 ft 453 kts 141°
2026-05-05 03:06 48.96231 10.31233 33052 ft 453 kts 141°
2026-05-05 03:06 48.93959 10.34539 33465 ft 452 kts 141°
2026-05-05 03:06 48.91694 10.37834 33890 ft 451 kts 141°
2026-05-05 03:06 48.89467 10.41078 34263 ft 450 kts 141°
2026-05-05 03:07 48.87205 10.44370 34618 ft 449 kts 141°
2026-05-05 03:07 48.84950 10.47644 34977 ft 448 kts 141°
2026-05-05 03:07 48.82695 10.50912 35327 ft 447 kts 141°
2026-05-05 03:07 48.80446 10.54168 35624 ft 447 kts 141°
2026-05-05 03:08 48.78191 10.57425 35922 ft 447 kts 141°
2026-05-05 03:08 48.75938 10.60671 36225 ft 447 kts 141°
2026-05-05 03:08 48.73685 10.63914 36535 ft 446 kts 141°
2026-05-05 03:08 48.71435 10.67151 36831 ft 446 kts 141°
2026-05-05 03:09 48.69181 10.70395 36924 ft 446 kts 141°
2026-05-05 03:09 48.65437 10.75767 36925 ft 446 kts 141°
2026-05-05 03:10 48.60926 10.82219 36918 ft 446 kts 141°
2026-05-05 03:10 48.56412 10.88674 36896 ft 446 kts 141°
2026-05-05 03:11 48.51892 10.95105 36914 ft 447 kts 141°
2026-05-05 03:11 48.47388 11.01492 36922 ft 447 kts 141°
2026-05-05 03:12 48.42852 11.07927 36924 ft 448 kts 141°
2026-05-05 03:12 48.38308 11.14356 36923 ft 448 kts 141°
2026-05-05 03:13 48.33761 11.20770 36929 ft 448 kts 141°
2026-05-05 03:13 48.29215 11.27158 36905 ft 448 kts 142°
2026-05-05 03:13 48.26757 11.29971 36903 ft 441 kts 154°
2026-05-05 03:14 48.23990 11.31814 36904 ft 433 kts 168°
2026-05-05 03:14 48.18140 11.33936 36905 ft 432 kts 170°
2026-05-05 03:15 48.12334 11.36048 36905 ft 432 kts 170°
2026-05-05 03:15 48.06469 11.38187 36902 ft 433 kts 170°
2026-05-05 03:16 48.00640 11.40283 36906 ft 433 kts 170°
2026-05-05 03:16 47.94764 11.42383 36917 ft 434 kts 170°
2026-05-05 03:17 47.88899 11.44485 36931 ft 434 kts 170°
2026-05-05 03:17 47.83026 11.46581 36914 ft 434 kts 170°
2026-05-05 03:18 47.77141 11.48673 36926 ft 435 kts 170°
2026-05-05 03:18 47.71236 11.50769 36938 ft 436 kts 170°
2026-05-05 03:19 47.62404 11.53884 36937 ft 437 kts 170°
2026-05-05 03:19 47.56639 11.55911 36946 ft 437 kts 170°
2026-05-05 03:20 47.50717 11.58003 36951 ft 437 kts 170°
2026-05-05 03:20 47.44821 11.60076 36948 ft 437 kts 170°
2026-05-05 03:21 47.38909 11.62161 36954 ft 437 kts 170°
2026-05-05 03:21 47.33001 11.64231 36953 ft 436 kts 170°
2026-05-05 03:22 47.27061 11.65996 36936 ft 432 kts 179°
2026-05-05 03:22 47.21054 11.66619 36939 ft 433 kts 179°
2026-05-05 03:23 47.15073 11.67239 36940 ft 434 kts 179°
2026-05-05 03:23 47.09049 11.67876 36998 ft 435 kts 179°
2026-05-05 03:24 47.03016 11.68508 37004 ft 434 kts 179°
2026-05-05 03:24 46.96969 11.69134 37018 ft 435 kts 179°
2026-05-05 03:25 46.90931 11.69760 37027 ft 435 kts 179°
2026-05-05 03:25 46.84893 11.70393 37035 ft 435 kts 179°
2026-05-05 03:26 46.78848 11.71019 37042 ft 435 kts 179°
2026-05-05 03:26 46.72841 11.71636 37040 ft 435 kts 179°
2026-05-05 03:27 46.66799 11.72254 37046 ft 435 kts 179°
2026-05-05 03:27 46.60866 11.73966 37044 ft 443 kts 158°
2026-05-05 03:28 46.55395 11.78201 37041 ft 446 kts 153°
2026-05-05 03:28 46.50110 11.82992 37044 ft 448 kts 150°
2026-05-05 03:29 46.44889 11.87940 37043 ft 448 kts 150°
2026-05-05 03:29 46.39712 11.92852 37040 ft 448 kts 150°
2026-05-05 03:30 46.34483 11.97797 37047 ft 448 kts 150°
2026-05-05 03:30 46.29257 12.02722 37035 ft 448 kts 150°
2026-05-05 03:31 46.24031 12.07633 37016 ft 448 kts 150°
2026-05-05 03:31 46.18799 12.12510 37025 ft 448 kts 150°
2026-05-05 03:32 46.13550 12.17402 37025 ft 449 kts 150°
2026-05-05 03:32 46.08299 12.22292 37030 ft 450 kts 150°
2026-05-05 03:33 46.03031 12.27179 37024 ft 450 kts 150°
2026-05-05 03:33 45.97767 12.32059 37024 ft 450 kts 150°
2026-05-05 03:34 45.92496 12.36939 37015 ft 451 kts 150°
2026-05-05 03:34 45.87254 12.41774 37005 ft 451 kts 150°
2026-05-05 03:35 45.81927 12.46685 37006 ft 452 kts 150°
2026-05-05 03:35 45.76666 12.51529 37004 ft 452 kts 150°
2026-05-05 03:36 45.71371 12.56398 37008 ft 453 kts 150°
2026-05-05 03:36 45.66066 12.61269 36995 ft 453 kts 150°
2026-05-05 03:37 45.60751 12.66137 36996 ft 454 kts 150°
2026-05-05 03:37 45.55432 12.70999 37001 ft 454 kts 150°
2026-05-05 03:38 45.50112 12.75854 37008 ft 454 kts 150°
2026-05-05 03:38 45.44808 12.80688 37010 ft 454 kts 150°
2026-05-05 03:39 45.39466 12.85561 37006 ft 454 kts 150°
2026-05-05 03:39 45.34141 12.90415 37000 ft 455 kts 150°
2026-05-05 03:40 45.28815 12.95296 37004 ft 456 kts 147°
2026-05-05 03:40 45.26482 12.98328 37005 ft 462 kts 133°
2026-05-05 03:40 45.24426 13.01823 37007 ft 462 kts 132°
2026-05-05 03:41 45.20312 13.08837 37014 ft 463 kts 132°
2026-05-05 03:41 45.16193 13.15855 37008 ft 463 kts 133°
2026-05-05 03:42 45.12066 13.22866 37008 ft 464 kts 133°
2026-05-05 03:42 45.07935 13.29874 37026 ft 464 kts 133°
2026-05-05 03:43 45.03775 13.36910 37021 ft 465 kts 133°
2026-05-05 03:43 44.99620 13.43925 37040 ft 465 kts 133°
2026-05-05 03:44 44.95478 13.50890 37028 ft 465 kts 133°
2026-05-05 03:44 44.91306 13.57891 37034 ft 465 kts 133°
2026-05-05 03:45 44.87132 13.64873 37043 ft 466 kts 133°
2026-05-05 03:45 44.82972 13.71815 37051 ft 466 kts 133°
2026-05-05 03:46 44.78772 13.78811 37050 ft 466 kts 133°
2026-05-05 03:46 44.74580 13.85780 37052 ft 466 kts 133°
2026-05-05 03:47 44.70424 13.92681 37043 ft 465 kts 133°
2026-05-05 03:47 44.66234 13.99612 37045 ft 466 kts 133°
2026-05-05 03:48 44.62033 14.06545 37046 ft 466 kts 133°
2026-05-05 03:48 44.57830 14.13462 37040 ft 466 kts 134°
2026-05-05 03:49 44.53600 14.20383 37046 ft 467 kts 134°
2026-05-05 03:49 44.49361 14.27307 37055 ft 467 kts 134°
2026-05-05 03:50 44.45160 14.34183 37039 ft 467 kts 134°
2026-05-05 03:50 44.40920 14.41098 37038 ft 468 kts 134°
2026-05-05 03:51 44.36669 14.48020 37039 ft 469 kts 134°
2026-05-05 03:51 44.34538 14.51475 36851 ft 472 kts 134°
2026-05-05 03:51 44.32392 14.54954 36326 ft 472 kts 134°
2026-05-05 03:52 44.30253 14.58422 35801 ft 473 kts 134°
2026-05-05 03:52 44.28093 14.61916 35297 ft 475 kts 134°
2026-05-05 03:52 44.25933 14.65405 34804 ft 476 kts 134°
2026-05-05 03:52 44.23796 14.68852 34317 ft 471 kts 134°
2026-05-05 03:53 44.21659 14.72291 33801 ft 468 kts 134°
2026-05-05 03:53 44.19529 14.75713 33253 ft 467 kts 134°
2026-05-05 03:53 44.17402 14.79130 32648 ft 467 kts 134°
2026-05-05 03:53 44.15273 14.82548 31997 ft 467 kts 134°
2026-05-05 03:54 44.13139 14.85964 31364 ft 467 kts 134°
2026-05-05 03:54 44.11005 14.89378 30743 ft 468 kts 134°
2026-05-05 03:54 44.08869 14.92791 30130 ft 468 kts 134°
2026-05-05 03:54 44.06725 14.96215 29418 ft 469 kts 133°
2026-05-05 03:55 44.04570 14.99651 28740 ft 472 kts 133°
2026-05-05 03:55 44.02408 15.03097 28070 ft 473 kts 133°
2026-05-05 03:55 44.00246 15.06541 27410 ft 471 kts 133°
2026-05-05 03:55 43.98107 15.09948 26764 ft 466 kts 133°
2026-05-05 03:56 43.96698 15.12187 26340 ft 463 kts 134°
2026-05-05 03:56 43.94589 15.15536 25734 ft 458 kts 134°
2026-05-05 03:56 43.92314 15.18585 25128 ft 451 kts 142°
2026-05-05 03:56 43.89948 15.21415 24537 ft 446 kts 142°
2026-05-05 03:57 43.87609 15.24222 23953 ft 442 kts 142°
2026-05-05 03:57 43.85287 15.27006 23317 ft 438 kts 142°
2026-05-05 03:57 43.82998 15.29744 22633 ft 430 kts 142°
2026-05-05 03:57 43.80767 15.32411 21974 ft 418 kts 141°
2026-05-05 03:58 43.78605 15.34997 21336 ft 408 kts 141°
2026-05-05 03:58 43.76465 15.37553 20699 ft 399 kts 141°
2026-05-05 03:58 43.74407 15.40004 20087 ft 391 kts 141°
2026-05-05 03:58 43.72330 15.42474 19489 ft 385 kts 142°
2026-05-05 03:59 43.70161 15.44519 18887 ft 376 kts 156°
2026-05-05 03:59 43.67849 15.46047 18375 ft 372 kts 157°
2026-05-05 03:59 43.65504 15.47583 17797 ft 368 kts 157°
2026-05-05 03:59 43.63201 15.49090 17212 ft 364 kts 157°
2026-05-05 04:00 43.60918 15.50586 16654 ft 360 kts 157°
2026-05-05 04:00 43.58665 15.52060 16099 ft 357 kts 157°
2026-05-05 04:00 43.56429 15.53520 15552 ft 353 kts 157°
2026-05-05 04:00 43.54216 15.54962 15005 ft 350 kts 157°
2026-05-05 04:01 43.52031 15.56387 14478 ft 346 kts 157°
2026-05-05 04:01 43.49886 15.57783 13968 ft 343 kts 157°
2026-05-05 04:01 43.47731 15.59185 13392 ft 333 kts 157°
2026-05-05 04:01 43.45691 15.60511 12825 ft 324 kts 157°
2026-05-05 04:02 43.43670 15.61821 12257 ft 316 kts 157°
2026-05-05 04:02 43.41704 15.63093 11693 ft 309 kts 157°
2026-05-05 04:02 43.39779 15.64342 11153 ft 303 kts 157°
2026-05-05 04:02 43.37889 15.65565 10630 ft 296 kts 157°
2026-05-05 04:03 43.36045 15.66758 10149 ft 288 kts 157°
2026-05-05 04:03 43.34247 15.67923 9645 ft 283 kts 157°
2026-05-05 04:03 43.32480 15.69075 9120 ft 280 kts 154°
2026-05-05 04:03 43.30850 15.70533 8608 ft 279 kts 142°
2026-05-05 04:04 43.29441 15.72355 8104 ft 276 kts 138°
2026-05-05 04:04 43.28089 15.74186 7604 ft 269 kts 137°
2026-05-05 04:04 43.26886 15.76067 7118 ft 265 kts 123°
2026-05-05 04:04 43.26253 15.78454 6630 ft 264 kts 99°
2026-05-05 04:05 43.26388 15.80918 6130 ft 264 kts 75°
2026-05-05 04:05 43.27261 15.83121 5620 ft 263 kts 53°
2026-05-05 04:05 43.28405 15.85056 5127 ft 258 kts 53°
2026-05-05 04:05 43.29526 15.86957 4620 ft 254 kts 54°
2026-05-05 04:06 43.30630 15.88835 4115 ft 251 kts 54°
2026-05-05 04:06 43.31719 15.90693 3617 ft 247 kts 53°
2026-05-05 04:06 43.32789 15.92523 3120 ft 245 kts 54°
2026-05-05 04:06 43.33839 15.94320 2831 ft 235 kts 54°
2026-05-05 04:07 43.34853 15.96057 2803 ft 236 kts 54°
2026-05-05 04:07 43.35917 15.97806 2804 ft 237 kts 52°
2026-05-05 04:07 43.36960 15.99553 2804 ft 236 kts 55°
2026-05-05 04:07 43.37966 16.01324 2804 ft 233 kts 56°
2026-05-05 04:08 43.38947 16.03072 2800 ft 234 kts 56°
2026-05-05 04:08 43.39935 16.04834 2804 ft 232 kts 55°
2026-05-05 04:08 43.40938 16.06620 2808 ft 233 kts 56°
2026-05-05 04:08 43.41930 16.08388 2810 ft 233 kts 56°
2026-05-05 04:09 43.42915 16.10143 2810 ft 226 kts 56°
2026-05-05 04:09 43.43833 16.11778 2807 ft 215 kts 56°
2026-05-05 04:09 43.44739 16.13399 2766 ft 213 kts 55°
2026-05-05 04:09 43.45644 16.15017 2521 ft 215 kts 57°
2026-05-05 04:10 43.46557 16.16648 2239 ft 215 kts 57°
2026-05-05 04:10 43.47463 16.18268 1953 ft 212 kts 56°
2026-05-05 04:10 43.48359 16.19870 1652 ft 209 kts 54°
2026-05-05 04:10 43.49220 16.21410 1363 ft 196 kts 54°
2026-05-05 04:11 43.50015 16.22836 1138 ft 180 kts 53°
2026-05-05 04:11 43.50751 16.24154 892 ft 166 kts 52°
2026-05-05 04:11 43.51418 16.25351 689 ft 148 kts 52°
2026-05-05 04:11 43.52016 16.26423 485 ft 133 kts 52°
2026-05-05 04:12 43.52561 16.27395 346 ft 127 kts 51°
2026-05-05 04:12 43.53097 16.28362 149 ft 124 kts 52°
2026-05-05 04:12 43.53605 16.29273 83 ft 107 kts 52°
2026-05-05 04:12 43.53952 16.29900 72 ft 60 kts 52°
2026-05-05 04:13 43.54116 16.30195 74 ft 20 kts 52°
2026-05-05 04:13 43.54190 16.30340 66 ft 11 kts 66°
2026-05-05 04:13 43.54216 16.30362 64 ft 3 kts 296°
2026-05-05 04:13 43.54208 16.30345 65 ft 2 kts 230°
2026-05-05 04:14 43.54195 16.30324 65 ft 4 kts 229°
2026-05-05 04:14 43.54172 16.30289 70 ft 6 kts 228°
2026-05-05 04:14 43.54143 16.30239 73 ft 8 kts 232°
2026-05-05 04:14 43.54094 16.30153 68 ft 15 kts 232°
2026-05-05 04:15 43.54017 16.30014 74 ft 21 kts 233°
2026-05-05 04:15 43.53926 16.29850 74 ft 22 kts 233°
2026-05-05 04:15 43.53831 16.29680 75 ft 23 kts 232°
2026-05-05 04:15 43.53748 16.29530 80 ft 13 kts 232°
2026-05-05 04:16 43.53702 16.29491 79 ft 7 kts 140°
2026-05-05 04:16 43.53690 16.29580 70 ft 12 kts 110°
2026-05-05 04:16 43.53642 16.29588 69 ft 7 kts 195°
2026-05-05 04:16 43.53594 16.29614 65 ft 6 kts 142°
2026-05-05 04:17 43.53567 16.29643 67 ft 4 kts 142°
2026-05-05 04:17 43.53544 16.29668 64 ft 5 kts 140°
2026-05-05 04:17 43.53545 16.29702 65 ft 3 kts 70°
2026-05-05 04:17 43.53546 16.29724 64 ft 0 kts 104°
2026-05-05 04:18 43.53544 16.29732 63 ft 1 kts 102°
2026-05-05 04:18 43.53543 16.29740 68 ft 0 kts 102°
2026-05-05 04:18 43.53543 16.29742 68 ft 0 kts 102°